Marseille, France

5:13 AM CET on November 22, 2017 (GMT +0100)
Marseille / Provence

Weather History for LFML - July, 2013

Change the Weather History Date:

Saturday, July 27, 2013

  Actual Average Record
Temperature  
Mean Temperature 84 °F -  
Max Temperature 97 °F 83 °F 97 °F (2013)
Min Temperature 72 °F 65 °F 64 °F (2000)
Cooling Degree Days 20    
Growing Degree Days 34 (Base 50)    
Moisture  
Dew Point 53 °F    
Average Humidity 33    
Maximum Humidity 53    
Minimum Humidity 11    
Precipitation  
Precipitation 0.00 in 0.04 in - ()
Sea Level Pressure  
Sea Level Pressure 29.89 in    
Wind  
Wind Speed 9 mph ()    
Max Wind Speed 22 mph    
Max Gust Speed -    
Visibility 6.2 miles    
Events      
Averages and records for this station are not official NWS values.
T = Trace of Precipitation, MM = Missing Value Source: Averaged Metar Reports

Daily Weather History Graph

Daily Weather History Graph

Search for Another Location

Airport or City:

Trip Planner

Search our weather history database for the weather conditions in past years. The results will help you decide how hot, cold, wet, or windy it might be!

Date:

Astronomy

Jul. 27, 2013 Rise Set
Actual Time 6:23 AM CEST 9:07 PM CEST
Civil Twilight 5:50 AM CEST 9:40 PM CEST
Nautical Twilight 5:08 AM CEST 10:21 PM CEST
Astronomical Twilight 4:20 AM CEST 11:09 PM CEST
Moon 11:33 PM CEST (7/27) 11:58 AM CEST (7/27)
Length of Visible Light 15h 49m
Length of Day
14h 43m
Waning Gibbous, 73% of the Moon is Illuminated
Jul 27
Waning Gibbous
Jul 29
Last Quarter
Aug 6
New
Aug 14
First Quarter
Aug 21
Full

Hourly Weather History & Observations

Time (CEST) Temp. Heat Index Dew Point Humidity Pressure Visibility Wind Dir Wind Speed Gust Speed Precip Events Conditions
12:00 AM 78.8 °F - 57.2 °F 47% 29.95 in - ESE 4.6 mph - N/A   Clear
12:30 AM 80.6 °F 80.8 °F 57.2 °F 45% 29.95 in - NE 3.5 mph - N/A   Clear
1:00 AM 77.0 °F - 55.4 °F 47% 29.92 in - ESE 3.5 mph - N/A   Clear
1:30 AM 77.0 °F - 55.4 °F 47% 29.92 in 6.2 mi SE 5.8 mph - N/A   Unknown
2:00 AM 78 °F - 55 °F 35% 29.93 in 34 mi East 4.6 mph - -   Clear
2:00 AM 77.0 °F - 55.4 °F 47% 29.92 in 6.2 mi East 4.6 mph - N/A   Unknown
2:30 AM 75.2 °F - 55.4 °F 50% 29.92 in 6.2 mi Variable 2.3 mph - N/A   Unknown
3:00 AM 75.2 °F - 55.4 °F 50% 29.92 in 6.2 mi ESE 2.3 mph - N/A   Unknown
3:30 AM 75.2 °F - 57.2 °F 53% 29.92 in 6.2 mi East 5.8 mph - N/A   Unknown
4:00 AM 75.2 °F - 57.2 °F 53% 29.92 in 6.2 mi ESE 4.6 mph - N/A   Unknown
4:30 AM 77.0 °F - 57.2 °F 50% 29.89 in 6.2 mi East 5.8 mph - N/A   Unknown
5:00 AM 75.2 °F - 55.4 °F 50% 29.92 in - East 3.5 mph - N/A   Clear
5:30 AM 77.0 °F - 55.4 °F 47% 29.89 in - East 5.8 mph - N/A   Clear
6:00 AM 78.8 °F - 53.6 °F 42% 29.92 in - ENE 4.6 mph - N/A   Clear
6:30 AM 77.0 °F - 53.6 °F 44% 29.92 in - East 8.1 mph - N/A   Clear
7:00 AM 75.2 °F - 57.2 °F 53% 29.92 in - ESE 4.6 mph - N/A   Clear
7:30 AM 77.0 °F - 57.2 °F 50% 29.92 in - East 4.6 mph - N/A   Clear
8:00 AM 80 °F - 56 °F 34% 29.92 in 37 mi ENE 5.8 mph - -   Scattered Clouds
8:00 AM 80.6 °F 80.8 °F 57.2 °F 45% 29.92 in - ENE 5.8 mph - N/A   Clear
8:30 AM 82.4 °F 82.0 °F 57.2 °F 42% 29.92 in - East 6.9 mph - N/A   Clear
9:00 AM 86.0 °F - 51.8 °F 31% 29.92 in - ESE 10.4 mph - N/A   Clear
9:30 AM 87.8 °F - 50.0 °F 27% 29.89 in - ESE 15.0 mph - N/A   Clear
10:00 AM 89.6 °F - 50.0 °F 26% 29.92 in - SE 15.0 mph - N/A   Clear
10:30 AM 91.4 °F - 51.8 °F 26% 29.92 in - SE 16.1 mph - N/A   Clear
11:00 AM 91.4 °F - 51.8 °F 26% 29.89 in - SE 17.3 mph - N/A   Clear
11:30 AM 93.2 °F - 50.0 °F 23% 29.89 in - SE 16.1 mph - N/A   Clear
12:00 PM 93.2 °F - 50.0 °F 23% 29.89 in - SSE 16.1 mph - N/A   Clear
12:30 PM 93.2 °F - 50.0 °F 23% 29.89 in - SE 16.1 mph - N/A   Clear
1:00 PM 95.0 °F - 50.0 °F 22% 29.89 in - SE 16.1 mph - N/A   Clear
1:30 PM 95.0 °F - 48.2 °F 20% 29.89 in - SSE 17.3 mph - N/A   Clear
2:00 PM 97 °F - 48 °F 11% 29.89 in 37 mi SSE 19.6 mph - -   Scattered Clouds
2:00 PM 96.8 °F - 48.2 °F 19% 29.89 in - SSE 19.6 mph - N/A   Clear
2:30 PM 96.8 °F - 48.2 °F 19% 29.89 in - SSE 19.6 mph - N/A   Clear
3:00 PM 96.8 °F - 50.0 °F 20% 29.89 in - SSE 19.6 mph - N/A   Clear
3:30 PM 95.0 °F - 48.2 °F 20% 29.89 in - SSE 21.9 mph - N/A   Clear
4:00 PM 95.0 °F - 48.2 °F 20% 29.89 in - SE 21.9 mph - N/A   Clear
4:30 PM 95.0 °F - 46.4 °F 19% 29.86 in - SE 19.6 mph - N/A   Clear
5:00 PM 95.0 °F - 48.2 °F 20% 29.86 in - SE 18.4 mph - N/A   Clear
5:30 PM 95.0 °F - 48.2 °F 20% 29.86 in - SE 19.6 mph - N/A   Clear
6:00 PM 93.2 °F - 48.2 °F 21% 29.86 in - SE 18.4 mph - N/A   Clear
6:30 PM 93.2 °F - 51.8 °F 24% 29.83 in - SE 18.4 mph - N/A   Clear
7:00 PM 93.2 °F - 51.8 °F 24% 29.83 in - ESE 18.4 mph - N/A   Clear
7:30 PM 91.4 °F - 51.8 °F 26% 29.83 in - SE 17.3 mph - N/A   Clear
8:00 PM 90 °F - 53 °F 19% 29.82 in 37 mi SE 16.1 mph - -   Scattered Clouds
8:00 PM 89.6 °F 87.3 °F 53.6 °F 29% 29.83 in - SE 15.0 mph - N/A   Clear
8:30 PM 89.6 °F 87.3 °F 53.6 °F 29% 29.80 in - ESE 16.1 mph - N/A   Clear
9:00 PM 87.8 °F 85.7 °F 53.6 °F 31% 29.83 in - ESE 11.5 mph - N/A   Clear
9:30 PM 87.8 °F - 51.8 °F 29% 29.83 in - East 10.4 mph - N/A   Clear
10:00 PM 87.8 °F - 51.8 °F 29% 29.83 in - East 12.7 mph - N/A   Clear
10:30 PM 86.0 °F - 51.8 °F 31% 29.86 in - East 10.4 mph - N/A   Clear
11:00 PM 86.0 °F - 51.8 °F 31% 29.86 in - East 9.2 mph - N/A   Clear
11:30 PM 86.0 °F - 51.8 °F 31% 29.86 in - East 10.4 mph - N/A   Clear